Dansville, NY

1:41 AM EST on November 13, 2019 (GMT -0500)
Dansville Municipal

Weather History for KDSV - October, 2019

Change the Weather History Date:

Sunday, October 20, 2019

  Actual Average Record
Temperature  
Mean Temperature 57 °F -  
Max Temperature 71 °F 57 °F 84 °F (1984)
Min Temperature 43 °F 35 °F 19 °F (1974)
Degree Days  
Heating Degree Days 8    
Growing Degree Days 7 (Base 50)    
Moisture  
Dew Point 43 °F    
Average Humidity 74    
Maximum Humidity 93    
Minimum Humidity 41    
Precipitation  
Precipitation 0.00 in - - ()
Sea Level Pressure  
Sea Level Pressure 29.97 in    
Wind  
Wind Speed 7 mph (SE)    
Max Wind Speed 10 mph    
Max Gust Speed -    
Visibility 10 miles    
Events      
Averages and records for this station are not official NWS values.
T = Trace of Precipitation, MM = Missing Value Source: NWS Daily Summary

Daily Weather History Graph

Daily Weather History Graph

Search for Another Location

Airport or City:

Astronomy

Oct. 20, 2019 Rise Set
Actual Time 7:29 AM EDT 6:21 PM EDT
Civil Twilight 7:00 AM EDT 6:49 PM EDT
Nautical Twilight 6:28 AM EDT 7:22 PM EDT
Astronomical Twilight 5:55 AM EDT 7:54 PM EDT
Moon 11:22 PM EDT (10/20) 2:01 PM EDT (10/20)
Length of Visible Light 11h 48m
Length of Day
10h 51m
Waning Gibbous, 59% of the Moon is Illuminated
Oct 20
Waning Gibbous
Oct 21
Last Quarter
Oct 27
New
Nov 4
First Quarter
Nov 12
Full

Hourly Weather History & Observations

Time (EDT) Temp. Windchill Dew Point Humidity Pressure Visibility Wind Dir Wind Speed Gust Speed Precip Events Conditions
12:54 AM 44.1 °F 39.5 °F 37.9 °F 79% 29.97 in 10.0 mi South 8.1 mph - N/A   Clear
1:54 AM 43.0 °F 38.8 °F 39.0 °F 86% 29.97 in 10.0 mi SE 6.9 mph - N/A   Clear
2:54 AM 45.0 °F 41.8 °F 39.0 °F 80% 29.96 in 10.0 mi SSE 5.8 mph - N/A   Clear
3:54 AM 45.0 °F 40.1 °F 39.0 °F 80% 29.94 in 10.0 mi SSE 9.2 mph - N/A   Clear
4:54 AM 46.0 °F 41.0 °F 39.9 °F 79% 29.94 in 10.0 mi SE 10.4 mph - N/A   Clear
5:54 AM 44.1 °F 39.5 °F 39.0 °F 82% 29.94 in 10.0 mi SE 8.1 mph - N/A   Clear
6:54 AM 43.0 °F 37.7 °F 39.0 °F 86% 29.93 in 10.0 mi SE 9.2 mph - N/A   Clear
7:54 AM 43.0 °F 38.8 °F 39.9 °F 89% 29.94 in 10.0 mi SE 6.9 mph - N/A   Clear
8:54 AM 46.0 °F 41.9 °F 41.0 °F 83% 29.96 in 10.0 mi SE 8.1 mph - N/A   Clear
9:54 AM 51.1 °F - 43.0 °F 74% 29.97 in 10.0 mi SSE 8.1 mph - N/A   Clear
10:54 AM 54.0 °F - 44.1 °F 69% 29.97 in 10.0 mi ESE 6.9 mph - N/A   Clear
11:54 AM 57.9 °F - 45.0 °F 62% 29.96 in 10.0 mi SE 6.9 mph - N/A   Clear
12:54 PM 62.1 °F - 46.9 °F 58% 29.95 in 10.0 mi SE 4.6 mph - N/A   Clear
1:54 PM 66.0 °F - 48.0 °F 52% 29.93 in 10.0 mi ESE 6.9 mph - N/A   Clear
2:54 PM 69.1 °F - 46.9 °F 45% 29.92 in 10.0 mi East 6.9 mph - N/A   Clear
3:54 PM 71.1 °F - 46.0 °F 41% 29.93 in 10.0 mi NW 6.9 mph - N/A   Clear
4:54 PM 66.9 °F - 46.9 °F 49% 29.94 in 10.0 mi NNW 5.8 mph - N/A   Clear
5:54 PM 62.1 °F - 48.0 °F 60% 29.96 in 10.0 mi SE 6.9 mph - N/A   Clear
6:54 PM 55.0 °F - 46.9 °F 74% 29.98 in 10.0 mi Calm Calm - N/A   Clear
7:54 PM 52.0 °F - 46.9 °F 83% 30.00 in 10.0 mi Calm Calm - N/A   Clear
8:54 PM 51.1 °F - 46.9 °F 86% 30.00 in 10.0 mi Calm Calm - N/A   Clear
9:54 PM 46.9 °F - 45.0 °F 93% 30.02 in 10.0 mi SE 4.6 mph - N/A   Clear
10:54 PM 48.0 °F - 45.0 °F 89% 30.04 in 10.0 mi SSE 6.9 mph - N/A   Clear
11:54 PM 46.9 °F - 44.1 °F 90% 30.05 in 10.0 mi SSE 3.5 mph - N/A   Clear